Location: Huesca
(42.1318°N, 0.4078°W)
Time: 05:42:54
(UTC+02:00)

RS-44 - Visible Passes

Search period start: 16 April 2024 00:00
Search period end: 26 April 2024 00:00
Orbit: 1175 x 1510 km, 82.5° (Epoch: 15 April)

Date Brightness Start Highest point End Pass type
(mag) Time Alt. Az. Time Alt. Az. Time Alt. Az.
16 Apr ? 21:42:28 10° SSE 21:51:05 56° E 21:59:26 10° NNE visible
16 Apr ? 23:36:57 10° SW 23:44:50 35° WNW 23:52:32 10° N visible
17 Apr ? 22:05:51 10° S 22:14:45 83° E 22:23:23 10° N visible
18 Apr ? 00:02:31 10° WSW 00:09:09 23° WNW 00:15:38 10° NNW visible
18 Apr ? 22:29:44 10° SSW 22:38:35 69° W 22:47:09 10° N visible
19 Apr ? 00:29:14 10° W 00:33:41 15° WNW 00:38:04 10° NNW visible
19 Apr ? 21:01:10 10° SSE 21:09:15 41° E 21:17:03 10° NNE visible
19 Apr ? 22:54:09 10° SW 23:02:35 46° WNW 23:10:44 10° N visible
20 Apr ? 21:24:08 10° S 21:32:49 62° E 21:41:11 10° NNE visible
20 Apr ? 23:19:11 10° SW 23:26:44 31° WNW 23:34:04 10° N visible
21 Apr ? 21:47:39 10° S 21:56:33 90° W 22:05:04 10° N visible
21 Apr ? 23:45:01 10° WSW 23:51:05 20° WNW 23:57:01 10° NNW visible
22 Apr ? 22:11:40 10° SSW 22:20:25 62° WNW 22:28:46 10° N visible
23 Apr ? 00:12:20 10° W 00:15:40 12° WNW 00:18:58 10° NNW visible
23 Apr ? 22:36:15 10° SW 22:44:26 41° WNW 22:52:17 10° N visible
24 Apr ? 06:37:28 10° NNE 06:41:14 14° ENE 06:44:56 10° E visible
24 Apr ? 21:05:50 10° S 21:14:34 69° E 21:22:53 10° NNE visible
24 Apr ? 23:01:29 10° WSW 23:08:37 27° WNW 23:15:32 10° NNW visible
25 Apr ? 21:29:29 10° S 21:38:20 82° W 21:46:43 10° N visible
25 Apr ? 23:27:38 10° W 23:33:02 18° WNW 23:38:17 10° NNW visible
